Location: Coed Ely
(51.5661°N, 3.4150°W)
Time: 20:06:12
(UTC+00:00)

YAOGAN 1 - Pass Details

Date: 28 January 2021
Orbit: 618 x 620 km, 97.9° (Epoch: 27 February)

Event Time Altitude Azimuth Distance (km) Brightness Sun altitude
Rises 19:10:56 0° 178° (S) 2,886 6.0 -20.8°
Reaches altitude 10° 19:13:09 10° 184° (S) 1,985 5.2 -21.1°
Maximum altitude 19:17:22 50° 260° (W) 793 3.4 -21.8°
Drops below altitude 10° 19:21:36 10° 337° (NNW) 2,000 5.4 -22.5°
Sets 19:23:52 0° 342° (NNW) 2,911 6.2 -22.8°
